| time (UTC) | temp F | wind direction | speed MPH | gust MPH | rain 1hr in | rain 24hr in | rain mn in | humidity % | barometer mb |
| 20260505023615 | 63 | -1 | 0.0 | 0.0 | 0.00 | 0.00 | 0.00 | 6 | 1002.7 |
| 20260505023115 | 64 | -1 | 0.0 | 0.0 | 0.00 | 0.00 | 0.00 | 6 | 1002.7 |
| 20260505022614 | 63 | -1 | 0.0 | 0.0 | 0.00 | 0.00 | 0.00 | 6 | 1002.7 |
| 20260505022113 | 64 | -1 | 0.0 | 0.0 | 0.00 | 0.00 | 0.00 | 6 | 1002.8 |
| 20260505021612 | 64 | -1 | 0.0 | 0.0 | 0.00 | 0.00 | 0.00 | 6 | 1002.9 |
| 20260505021112 | 64 | -1 | 0.0 | 0.0 | 0.00 | 0.00 | 0.00 | 5 | 1002.9 |
| 20260505020611 | 64 | -1 | 0.0 | 0.0 | 0.00 | 0.00 | 0.00 | 5 | 1002.8 |
| 20260505020110 | 63 | -1 | 0.0 | 0.0 | 0.00 | 0.00 | 0.00 | 6 | 1003.1 |
| 20260505015609 | 63 | -1 | 0.0 | 0.0 | 0.00 | 0.00 | 0.00 | 6 | 1003.0 |
| 20260505015109 | 63 | -1 | 0.0 | 0.0 | 0.00 | 0.00 | 0.00 | 6 | 1002.9 |
| 20260505014608 | 63 | -1 | 0.0 | 0.0 | 0.00 | 0.00 | 0.00 | 6 | 1002.9 |
| 20260505014107 | 64 | -1 | 0.0 | 0.0 | 0.00 | 0.00 | 0.00 | 6 | 1002.9 |
| 20260505013607 | 63 | -1 | 0.0 | 0.0 | 0.00 | 0.00 | 0.00 | 6 | 1003.0 |
| 20260505013106 | 63 | -1 | 0.0 | 0.0 | 0.00 | 0.00 | 0.00 | 6 | 1003.1 |
| 20260505012605 | 64 | -1 | 0.0 | 0.0 | 0.00 | 0.00 | 0.00 | 5 | 1003.0 |
| 20260505012104 | 64 | -1 | 0.0 | 0.0 | 0.00 | 0.00 | 0.00 | 5 | 1003.1 |
| 20260505011604 | 65 | -1 | 0.0 | 0.0 | 0.00 | 0.00 | 0.00 | 5 | 1003.0 |
| 20260505011103 | 67 | -1 | 0.0 | 0.0 | 0.00 | 0.00 | 0.00 | 5 | 1002.7 |
| 20260505010602 | 67 | -1 | 0.0 | 0.0 | 0.00 | 0.00 | 0.00 | 5 | 1002.6 |
| 20260505005601 | 66 | -1 | 0.0 | 0.0 | 0.00 | 0.00 | 0.00 | 5 | 1003.0 |
| 20260505005100 | 65 | -1 | 0.0 | 0.0 | 0.00 | 0.00 | 0.00 | 5 | 1003.1 |
| 20260505004559 | 66 | -1 | 0.0 | 0.0 | 0.00 | 0.00 | 0.00 | 5 | 1003.1 |
| 20260505004059 | 67 | -1 | 0.0 | 0.0 | 0.00 | 0.00 | 0.00 | 5 | 1002.9 |
| 20260505003558 | 66 | -1 | 0.0 | 0.0 | 0.00 | 0.00 | 0.00 | 5 | 1003.1 |
| 20260505003057 | 65 | -1 | 0.0 | 0.0 | 0.00 | 0.00 | 0.00 | 5 | 1003.3 |
| 20260505002557 | 66 | -1 | 0.0 | 0.0 | 0.00 | 0.00 | 0.00 | 5 | 1003.3 |
| 20260505002056 | 66 | -1 | 0.0 | 0.0 | 0.00 | 0.00 | 0.00 | 5 | 1003.4 |
| 20260505001555 | 66 | -1 | 0.0 | 0.0 | 0.00 | 0.00 | 0.00 | 5 | 1003.4 |
| 20260505001054 | 66 | -1 | 0.0 | 0.0 | 0.00 | 0.00 | 0.00 | 5 | 1003.5 |
| 20260505000554 | 65 | -1 | 0.0 | 0.0 | 0.00 | 0.00 | 0.00 | 5 | 1003.7 |
| 20260505000053 | 65 | -1 | 0.0 | 0.0 | 0.00 | 0.00 | 0.00 | 5 | 1003.7 |
| 20260504235552 | 66 | -1 | 0.0 | 0.0 | 0.00 | 0.00 | 0.00 | 5 | 1003.7 |
| 20260504235051 | 65 | -1 | 0.0 | 0.0 | 0.00 | 0.00 | 0.00 | 5 | 1003.9 |
| 20260504234551 | 64 | -1 | 0.0 | 0.0 | 0.00 | 0.00 | 0.00 | 5 | 1004.2 |
| 20260504234050 | 64 | -1 | 0.0 | 0.0 | 0.00 | 0.00 | 0.00 | 5 | 1004.3 |
| 20260504233549 | 65 | -1 | 0.0 | 0.0 | 0.00 | 0.00 | 0.00 | 5 | 1004.1 |
| 20260504233048 | 65 | -1 | 0.0 | 0.0 | 0.00 | 0.00 | 0.00 | 5 | 1004.2 |
| 20260504232548 | 65 | -1 | 0.0 | 0.0 | 0.00 | 0.00 | 0.00 | 5 | 1004.2 |
| 20260504232047 | 66 | -1 | 0.0 | 0.0 | 0.00 | 0.00 | 0.00 | 5 | 1004.1 |
| 20260504231546 | 67 | -1 | 0.0 | 0.0 | 0.00 | 0.00 | 0.00 | 5 | 1004.0 |
| 20260504231046 | 67 | -1 | 0.0 | 0.0 | 0.00 | 0.00 | 0.00 | 5 | 1004.1 |
| 20260504230545 | 67 | -1 | 0.0 | 0.0 | 0.00 | 0.00 | 0.00 | 5 | 1004.3 |
| 20260504230044 | 67 | -1 | 0.0 | 0.0 | 0.00 | 0.00 | 0.00 | 5 | 1004.3 |
| 20260504225543 | 67 | -1 | 0.0 | 0.0 | 0.00 | 0.00 | 0.00 | 5 | 1004.4 |
| 20260504225043 | 67 | -1 | 4.0 | 4.0 | 0.00 | 0.00 | 0.00 | 5 | 1004.5 |
| 20260504224542 | 67 | -1 | 3.0 | 4.0 | 0.00 | 0.00 | 0.00 | 5 | 1004.5 |
| 20260504224041 | 67 | -1 | 3.0 | 6.0 | 0.00 | 0.00 | 0.00 | 5 | 1004.5 |
| 20260504223542 | 67 | -1 | 0.0 | 4.0 | 0.00 | 0.00 | 0.00 | 5 | 1004.5 |
| 20260504223040 | 68 | -1 | 3.0 | 5.0 | 0.00 | 0.00 | 0.00 | 5 | 1004.4 |
| 20260504222539 | 68 | -1 | 3.0 | 4.0 | 0.00 | 0.00 | 0.00 | 5 | 1004.3 |
| 20260504222038 | 69 | -1 | 0.0 | 0.0 | 0.00 | 0.00 | 0.00 | 5 | 1004.2 |
| 20260504221538 | 69 | -1 | 0.0 | 0.0 | 0.00 | 0.00 | 0.00 | 5 | 1004.2 |
| 20260504221037 | 68 | -1 | 4.0 | 5.0 | 0.00 | 0.00 | 0.00 | 5 | 1004.2 |
| 20260504220536 | 68 | -1 | 5.0 | 5.0 | 0.00 | 0.00 | 0.00 | 5 | 1004.1 |
| 20260504220036 | 68 | -1 | 0.0 | 0.0 | 0.00 | 0.00 | 0.00 | 5 | 1004.1 |
| 20260504215535 | 68 | -1 | 0.0 | 0.0 | 0.00 | 0.00 | 0.00 | 5 | 1004.3 |
| 20260504215034 | 68 | -1 | 0.0 | 0.0 | 0.00 | 0.00 | 0.00 | 5 | 1004.3 |
| 20260504214533 | 68 | -1 | 0.0 | 0.0 | 0.00 | 0.00 | 0.00 | 5 | 1004.3 |
| 20260504214033 | 67 | -1 | 0.0 | 0.0 | 0.00 | 0.00 | 0.00 | 5 | 1004.4 |
| 20260504213532 | 67 | -1 | 0.0 | 0.0 | 0.00 | 0.00 | 0.00 | 5 | 1004.4 |
| 20260504213031 | 68 | -1 | 4.0 | 7.0 | 0.00 | 0.00 | 0.00 | 5 | 1004.4 |
| 20260504212530 | 69 | -1 | 4.0 | 7.0 | 0.00 | 0.00 | 0.00 | 5 | 1004.3 |
| 20260504212030 | 67 | -1 | 0.0 | 0.0 | 0.00 | 0.00 | 0.00 | 5 | 1004.5 |
| 20260504211529 | 67 | -1 | 0.0 | 0.0 | 0.00 | 0.00 | 0.00 | 5 | 1004.6 |
| 20260504211028 | 68 | -1 | 3.0 | 4.0 | 0.00 | 0.00 | 0.00 | 5 | 1004.5 |
| 20260504210528 | 68 | -1 | 0.0 | 0.0 | 0.00 | 0.00 | 0.00 | 4 | 1004.6 |
| 20260504210027 | 67 | -1 | 3.0 | 5.0 | 0.00 | 0.00 | 0.00 | 5 | 1004.8 |
| 20260504205526 | 67 | -1 | 3.0 | 5.0 | 0.00 | 0.00 | 0.00 | 5 | 1004.9 |
| 20260504205026 | 67 | -1 | 2.0 | 3.0 | 0.00 | 0.00 | 0.00 | 5 | 1005.0 |
| 20260504204525 | 67 | -1 | 0.0 | 0.0 | 0.00 | 0.00 | 0.00 | 4 | 1005.0 |
| 20260504204024 | 68 | -1 | 0.0 | 0.0 | 0.00 | 0.00 | 0.00 | 4 | 1004.9 |
| 20260504203523 | 69 | -1 | 0.0 | 0.0 | 0.00 | 0.00 | 0.00 | 4 | 1004.8 |
| 20260504203022 | 69 | -1 | 2.0 | 3.0 | 0.00 | 0.00 | 0.00 | 4 | 1004.8 |
| 20260504202522 | 71 | -1 | 0.0 | 0.0 | 0.00 | 0.00 | 0.00 | 4 | 1004.2 |
| 20260504202021 | 71 | -1 | 0.0 | 0.0 | 0.00 | 0.00 | 0.00 | 4 | 1004.3 |
| 20260504201520 | 72 | -1 | 0.0 | 0.0 | 0.00 | 0.00 | 0.00 | 4 | 1004.2 |
| 20260504201019 | 71 | -1 | 0.0 | 0.0 | 0.00 | 0.00 | 0.00 | 4 | 1004.2 |
| 20260504200519 | 72 | -1 | 0.0 | 0.0 | 0.00 | 0.00 | 0.00 | 4 | 1004.3 |
| 20260504200018 | 72 | -1 | 0.0 | 0.0 | 0.00 | 0.00 | 0.00 | 4 | 1004.2 |
| 20260504195517 | 72 | -1 | 0.0 | 0.0 | 0.00 | 0.00 | 0.00 | 4 | 1004.1 |
| 20260504195017 | 72 | -1 | 0.0 | 0.0 | 0.00 | 0.00 | 0.00 | 4 | 1004.2 |
| 20260504194516 | 72 | -1 | 0.0 | 0.0 | 0.00 | 0.00 | 0.00 | 4 | 1004.1 |
| 20260504194015 | 71 | -1 | 0.0 | 0.0 | 0.00 | 0.00 | 0.00 | 4 | 1004.2 |
| 20260504193514 | 72 | -1 | 0.0 | 0.0 | 0.00 | 0.00 | 0.00 | 4 | 1004.2 |
| 20260504193014 | 72 | -1 | 0.0 | 0.0 | 0.00 | 0.00 | 0.00 | 4 | 1004.0 |
| 20260504192513 | 72 | -1 | 0.0 | 0.0 | 0.00 | 0.00 | 0.00 | 4 | 1004.0 |
| 20260504192012 | 73 | -1 | 0.0 | 0.0 | 0.00 | 0.00 | 0.00 | 3 | 1003.9 |
| 20260504191511 | 73 | -1 | 0.0 | 0.0 | 0.00 | 0.00 | 0.00 | 4 | 1003.8 |
| 20260504191011 | 73 | -1 | 0.0 | 0.0 | 0.00 | 0.00 | 0.00 | 4 | 1003.8 |
| 20260504190509 | 73 | -1 | 0.0 | 0.0 | 0.00 | 0.00 | 0.00 | 3 | 1003.7 |
| 20260504190008 | 73 | -1 | 0.0 | 0.0 | 0.00 | 0.00 | 0.00 | 4 | 1003.7 |
| 20260504185508 | 73 | -1 | 0.0 | 0.0 | 0.00 | 0.00 | 0.00 | 3 | 1003.7 |
| 20260504185007 | 73 | -1 | 0.0 | 0.0 | 0.00 | 0.00 | 0.00 | 3 | 1003.6 |
| 20260504184506 | 74 | -1 | 0.0 | 0.0 | 0.00 | 0.00 | 0.00 | 3 | 1003.4 |
| 20260504184005 | 73 | -1 | 0.0 | 0.0 | 0.00 | 0.00 | 0.00 | 3 | 1003.5 |
| 20260504183505 | 74 | -1 | 0.0 | 0.0 | 0.00 | 0.00 | 0.00 | 3 | 1003.3 |
| 20260504183004 | 74 | -1 | 0.0 | 0.0 | 0.00 | 0.00 | 0.00 | 3 | 1003.2 |
| 20260504182505 | 75 | -1 | 3.0 | 0.0 | 0.00 | 0.00 | 0.00 | 3 | 1003.2 |
| 20260504182002 | 75 | -1 | 0.0 | 0.0 | 0.00 | 0.00 | 0.00 | 3 | 1003.2 |
| 20260504181502 | 75 | -1 | 0.0 | 0.0 | 0.00 | 0.00 | 0.00 | 3 | 1003.1 |
| 20260504181001 | 75 | -1 | 0.0 | 0.0 | 0.00 | 0.00 | 0.00 | 3 | 1003.1 |
| 20260504180500 | 76 | -1 | 0.0 | 0.0 | 0.00 | 0.00 | 0.00 | 3 | 1003.1 |
| 20260504180002 | 76 | -1 | 0.0 | 0.0 | 0.00 | 0.00 | 0.00 | 3 | 1003.0 |
| 20260504175459 | 76 | -1 | 2.0 | 3.0 | 0.00 | 0.00 | 0.00 | 3 | 1003.0 |
| 20260504174958 | 76 | -1 | 3.0 | 4.0 | 0.00 | 0.00 | 0.00 | 3 | 1002.9 |
| 20260504174457 | 76 | -1 | 0.0 | 3.0 | 0.00 | 0.00 | 0.00 | 3 | 1002.9 |
| 20260504173956 | 77 | -1 | 2.0 | 4.0 | 0.00 | 0.00 | 0.00 | 3 | 1002.9 |
| 20260504173456 | 76 | -1 | 3.0 | 6.0 | 0.00 | 0.00 | 0.00 | 3 | 1002.9 |
| 20260504172955 | 76 | -1 | 4.0 | 8.0 | 0.00 | 0.00 | 0.00 | 3 | 1002.9 |
| 20260504172454 | 78 | -1 | 3.0 | 5.0 | 0.00 | 0.00 | 0.00 | 3 | 1002.8 |
| 20260504171953 | 77 | -1 | 3.0 | 4.0 | 0.00 | 0.00 | 0.00 | 3 | 1002.9 |
| 20260504171452 | 77 | -1 | 3.0 | 4.0 | 0.00 | 0.00 | 0.00 | 3 | 1002.8 |
| 20260504170951 | 78 | -1 | 3.0 | 4.0 | 0.00 | 0.00 | 0.00 | 3 | 1002.8 |
| 20260504170450 | 78 | -1 | 0.0 | 3.0 | 0.00 | 0.00 | 0.00 | 3 | 1002.9 |
| 20260504160441 | 82 | -1 | 6.0 | 12.0 | 0.00 | 0.00 | 0.00 | 3 | 1002.3 |
| 20260504150933 | 86 | -1 | 3.0 | 7.0 | 0.00 | 0.00 | 0.00 | 2 | 1001.8 |
| 20260504150432 | 85 | -1 | 4.0 | 9.0 | 0.00 | 0.00 | 0.00 | 2 | 1002.0 |
| 20260504140925 | 83 | -1 | 5.0 | 10.0 | 0.00 | 0.00 | 0.00 | 2 | 1002.5 |
| 20260504140424 | 84 | -1 | 5.0 | 10.0 | 0.00 | 0.00 | 0.00 | 2 | 1002.4 |
| 20260504130415 | 86 | -1 | 5.0 | 11.0 | 0.00 | 0.00 | 0.00 | 2 | 1002.7 |
| 20260504110357 | 84 | -1 | 4.0 | 9.0 | 0.00 | 0.00 | 0.00 | 2 | 1003.9 |
| 20260504100348 | 80 | -1 | 3.0 | 3.0 | 0.00 | 0.00 | 0.00 | 2 | 1005.3 |
| 20260504081833 | 79 | -1 | 0.0 | 0.0 | 0.00 | 0.00 | 0.00 | 3 | 1005.2 |
| 20260504081332 | 79 | -1 | 0.0 | 0.0 | 0.00 | 0.00 | 0.00 | 3 | 1005.3 |
| 20260504080832 | 79 | -1 | 0.0 | 0.0 | 0.00 | 0.00 | 0.00 | 3 | 1005.3 |
| 20260504080331 | 75 | -1 | 0.0 | 0.0 | 0.00 | 0.00 | 0.00 | 3 | 1005.7 |
| 20260504070322 | 74 | -1 | 0.0 | 0.0 | 0.00 | 0.00 | 0.00 | 4 | 1005.6 |
| 20260504050305 | 62 | -1 | 0.0 | 0.0 | 0.00 | 0.00 | 0.00 | 5 | 1007.3 |
| 20260504045804 | 62 | -1 | 0.0 | 0.0 | 0.00 | 0.00 | 0.00 | 5 | 1007.4 |
| 20260504045304 | 61 | -1 | 0.0 | 0.0 | 0.00 | 0.00 | 0.00 | 5 | 1007.6 |
| 20260504044803 | 60 | -1 | 0.0 | 0.0 | 0.00 | 0.00 | 0.00 | 5 | 1007.7 |
| 20260504044303 | 59 | -1 | 0.0 | 0.0 | 0.00 | 0.00 | 0.00 | 5 | 1007.8 |
| 20260504043802 | 59 | -1 | 0.0 | 0.0 | 0.00 | 0.00 | 0.00 | 5 | 1007.8 |
| 20260504043301 | 59 | -1 | 0.0 | 0.0 | 0.00 | 0.00 | 0.00 | 5 | 1008.0 |
| 20260504042800 | 59 | -1 | 0.0 | 0.0 | 0.00 | 0.00 | 0.00 | 5 | 1008.0 |
| 20260504042259 | 61 | -1 | 0.0 | 0.0 | 0.00 | 0.00 | 0.00 | 5 | 1007.5 |
| 20260504041759 | 62 | -1 | 0.0 | 0.0 | 0.00 | 0.00 | 0.00 | 4 | 1007.3 |
| 20260504041258 | 61 | -1 | 0.0 | 0.0 | 0.00 | 0.00 | 0.00 | 4 | 1007.2 |
| 20260504040757 | 62 | -1 | 0.0 | 0.0 | 0.00 | 0.00 | 0.00 | 4 | 1007.0 |
| 20260504040256 | 61 | -1 | 0.0 | 0.0 | 0.00 | 0.00 | 0.00 | 4 | 1007.0 |
| 20260504035756 | 62 | -1 | 0.0 | 0.0 | 0.00 | 0.00 | 0.00 | 4 | 1006.9 |
| 20260504035255 | 62 | -1 | 0.0 | 0.0 | 0.00 | 0.00 | 0.00 | 4 | 1006.8 |
| 20260504034754 | 61 | -1 | 0.0 | 0.0 | 0.00 | 0.00 | 0.00 | 5 | 1007.0 |
| 20260504034254 | 60 | -1 | 0.0 | 0.0 | 0.00 | 0.00 | 0.00 | 5 | 1007.0 |
| 20260504033753 | 61 | -1 | 0.0 | 0.0 | 0.00 | 0.00 | 0.00 | 5 | 1006.9 |
| 20260504033252 | 61 | -1 | 0.0 | 0.0 | 0.00 | 0.00 | 0.00 | 5 | 1007.0 |
| 20260504032751 | 61 | -1 | 0.0 | 0.0 | 0.00 | 0.00 | 0.00 | 5 | 1007.0 |
| 20260504032251 | 61 | -1 | 0.0 | 0.0 | 0.00 | 0.00 | 0.00 | 5 | 1007.2 |
| 20260504031750 | 61 | -1 | 0.0 | 0.0 | 0.00 | 0.00 | 0.00 | 5 | 1007.4 |
| 20260504031249 | 61 | -1 | 0.0 | 0.0 | 0.00 | 0.00 | 0.00 | 4 | 1007.4 |
| 20260504030749 | 61 | -1 | 0.0 | 0.0 | 0.00 | 0.00 | 0.00 | 5 | 1007.4 |
| 20260504030248 | 61 | -1 | 0.0 | 0.0 | 0.00 | 0.00 | 0.00 | 4 | 1007.3 |
| 20260504025747 | 61 | -1 | 0.0 | 0.0 | 0.00 | 0.00 | 0.00 | 5 | 1007.3 |
| 20260504025246 | 61 | -1 | 0.0 | 0.0 | 0.00 | 0.00 | 0.00 | 5 | 1007.3 |
| 20260504024746 | 61 | -1 | 0.0 | 0.0 | 0.00 | 0.00 | 0.00 | 5 | 1007.3 |
| 20260504024245 | 61 | -1 | 0.0 | 0.0 | 0.00 | 0.00 | 0.00 | 5 | 1007.5 |